Tracking 30995 objects as of 5-Jul-2025
HD Live streaming from Space Station
objects crossing your sky now

STARLINK-5925

Track STARLINK-5925 now!
10-day predictions
STARLINK-5925 is classified as:


NORAD ID: 55945
Int'l Code: 2023-037AH
Perigee: 576.3 km
Apogee: 582.1 km
Inclination: 70.0 °
Period: 96.1 minutes
Semi major axis: 6950 km
RCS: Unknown
Launch date: March 17, 2023
Source: United States (US)
Launch site: AIR FORCE WESTERN TEST RANGE (AFWTR)
Your satellite tracking list
CARTOSAT 3
Track 1 satellite(s)




NASA's NSSDC Master Catalog

Two Line Element Set (TLE):
1 55945U 23037AH  25186.42046645  .00000345  00000-0  36723-4 0  9993
2 55945  69.9992 187.8264 0004178 262.2916  97.7769 14.98332215126943
Source of the keplerian elements: AFSPC